Regional Weather Roundup
Issued by NWS

Home | Current Version | Previous Version | Text Only | Print | Product List | Glossary Off
Versions: 1 2 3 4 5 6 7 8 9 10 11 12 13 14 15 16 17 18 19 20 21 22 23 24 25 26 27 28 29 30 31 32 33 34 35 36 37 38 39 40 41 42 43 44 45 46 47 48 49 50

000
ASUS43 KLMK 281602
RWRKY
KENTUCKY REGIONAL WEATHER ROUNDUP
NATIONAL WEATHER SERVICE LOUISVILLE KY
1200 PM EDT THU AUG 28 2014

NOTE "FAIR" INDICATES FEW OR NO CLOUDS BELOW 12,000 FEET
WITH NO SIGNIFICANT WEATHER AND/OR OBSTRUCTIONS TO VISIBILITY.

KYZ001>023-026-027-061>063-070>075-281700-
WESTERN AND SOUTH CENTRAL KENTUCKY

CITY           SKY/WX    TMP DP  RH WIND       PRES   REMARKS
PADUCAH        SUNNY     89  74  60 CALM      30.03S HX  98
HENDERSON      SUNNY     84  73  70 E5        30.04S HX  91
OWENSBORO      SUNNY     87  75  67 SE7       30.05F HX  96
HOPKINSVILLE   SUNNY     88  74  61 S3        30.05S HX  96
BOWLING GREEN  SUNNY     87  72  60 CALM      30.06S HX  93
GLASGOW        SUNNY     85  72  64 CALM      30.06F HX  91
$$

KYZ024-025-028>034-038-045-046-053-281700-
NORTH CENTRAL KENTUCKY

CITY           SKY/WX    TMP DP  RH WIND       PRES   REMARKS
LOUISVILLE/SDF MOSUNNY   85  73  67 E5        30.06F HX  91
LOUISVILLE/LOU MOSUNNY   83  72  69 VRB3      30.07S
FORT KNOX      SUNNY     83  73  72 CALM      30.06F
$$

KYZ035>037-039>044-047>052-055>060-089>105-281700-
NORTHEAST KENTUCKY

CITY           SKY/WX    TMP DP  RH WIND       PRES   REMARKS
LEXINGTON      MOSUNNY   83  74  74 NE9       30.09S
COVINGTON      MOSUNNY   80  63  55 NE8       30.10S
FRANKFORT      PTSUNNY   79  71  76 NE5       30.08F
$$

KYZ054-064>069-076>088-106>120-281700-
SOUTHEAST KENTUCKY

CITY           SKY/WX    TMP DP  RH WIND       PRES   REMARKS
JACKSON        CLOUDY    73  69  87 CALM      30.12S FOG
LONDON         MOSUNNY   83  70  64 CALM      30.09F
SOMERSET       MOSUNNY   82  70  65 CALM      30.08F
MIDDLESBORO    PTSUNNY   82  70  67 CALM      30.09F
MONTICELLO     SUNNY     87  74  65 CALM      30.09F HX  95
$$



USA.gov is the U.S. government's official web portal to all federal, state and local government web resources and services.